Wind_Speed
31 30 29 28 27 26 25 24 22 22 22 23 23 24 24 24 24 23 22 22 22 23 23 24 25 25 25 25 26 27 29 29 30 32 33 35 35 34 34 33 33 32 32 31 31 31 30 28 28 27 27 29 30 30 30 29 30 30 32 33 33 32 31 31 31 31 31 29 27
31 30 28 26 26 25 24 23 22 22 22 22 22 23 24 24 24 23 22 22 22 22 22 22 23 24 24 25 26 27 28 29 30 31 32 33 34 34 34 33 33 33 32 32 31 31 31 29 28 27 27 29 29 30 31 31 30 31 32 34 34 33 32 32 32 32 32 32 29
30 29 27 26 26 25 24 23 22 22 22 21 21 22 22 22 23 23 22 22 21 21 21 21 23 24 25 25 26 27 28 29 30 31 31 31 32 33 34 34 33 33 33 33 32 31 31 31 29 28 28 28 29 30 31 31 31 30 31 33 33 34 33 32 32 32 32 32 31
30 29 28 26 26 25 24 23 22 22 22 21 21 21 21 21 21 21 21 21 21 21 21 21 23 24 25 26 26 27 28 29 30 31 31 31 32 33 34 34 34 34 34 34 34 32 31 32 30 28 27 27 28 30 31 31 31 31 31 31 33 34 34 33 33 33 32 32 32
29 28 28 26 26 24 23 22 22 22 22 21 20 20 20 20 20 20 20 21 22 22 21 21 22 24 25 26 26 27 28 29 30 31 31 31 31 32 33 35 35 35 35 35 36 34 33 32 30 29 28 28 28 28 29 30 30 30 30 31 32 34 34 34 33 33 33 32 31
28 28 27 26 25 23 22 21 21 21 21 20 20 20 20 19 19 19 20 20 21 21 21 21 21 23 24 25 25 26 27 28 30 31 31 31 31 31 33 34 35 35 35 35 36 35 34 32 30 29 28 27 28 28 28 28 29 28 28 29 30 31 33 34 34 33 33 32 30
28 27 27 26 25 23 21 20 20 20 20 19 20 21 20 20 19 20 20 20 20 20 21 21 21 22 23 24 24 25 26 27 28 30 31 30 30 31 32 33 33 34 34 35 35 35 35 33 31 29 28 28 28 29 29 29 29 29 28 28 28 30 32 35 34 33 33 33 32
27 26 26 25 24 23 21 20 20 20 20 19 20 21 21 20 20 20 19 19 19 20 20 21 21 22 22 23 24 25 26 26 27 29 31 31 31 31 32 33 33 34 34 34 35 35 35 35 32 30 29 29 29 30 31 31 31 31 30 30 29 30 33 35 34 33 33 34 34
25 24 24 24 24 23 22 21 21 21 20 20 20 21 21 20 20 20 20 19 19 20 21 21 22 22 23 24 25 25 26 27 28 29 30 31 31 31 31 32 33 33 33 33 34 35 35 35 34 32 32 31 31 32 33 32 33 32 32 32 31 30 30 32 32 31 31 33 33
24 24 23 23 24 23 23 22 22 21 20 20 20 20 20 20 21 20 20 20 19 20 21 22 23 23 24 25 25 26 27 28 28 29 30 31 32 31 31 32 32 33 32 31 33 34 34 33 33 33 33 33 32 32 32 32 32 32 31 31 30 28 28 30 31 30 29 32 32
24 24 23 23 24 24 24 23 22 21 20 19 19 19 19 20 21 21 20 20 20 21 21 22 22 23 24 25 25 26 27 27 27 27 28 29 30 30 30 30 31 31 31 30 30 30 30 31 30 31 33 32 32 32 32 32 31 32 31 30 29 29 29 31 32 31 30 32 33
24 24 23 23 24 24 23 23 22 21 20 20 19 19 19 20 21 21 20 20 20 21 21 21 22 22 22 23 23 23 24 24 24 24 25 26 27 27 28 28 28 28 29 29 28 28 27 28 28 28 29 30 30 31 32 33 32 32 32 31 31 31 32 34 35 34 33 33 33
24 23 23 23 23 23 22 22 21 20 20 20 19 19 19 20 20 21 20 20 20 20 20 20 20 20 20 21 21 21 21 21 22 22 22 23 24 25 25 26 26 26 27 27 27 27 27 26 26 26 26 27 28 29 31 33 33 33 33 33 33 34 35 37 38 37 36 35 35
23 23 23 23 22 21 21 20 19 18 18 19 19 19 19 19 20 20 20 20 20 19 19 18 18 18 19 19 19 20 20 20 21 21 21 22 23 24 25 26 26 26 27 27 27 27 28 28 27 26 25 25 26 27 30 32 34 34 35 35 35 36 37 38 39 39 38 38 37
22 22 22 22 21 20 19 19 17 17 18 18 19 19 18 19 19 20 20 19 19 19 18 18 17 18 18 18 19 19 20 20 21 21 22 22 23 24 25 27 28 29 29 29 29 29 30 30 29 29 28 27 27 27 29 32 34 35 35 36 37 38 38 38 39 39 39 39 38
21 21 20 20 19 19 18 18 16 16 17 17 18 18 18 17 18 18 18 18 18 17 17 17 17 17 18 19 20 20 21 21 22 23 24 25 26 27 28 29 30 31 32 32 32 31 32 32 32 32 31 30 29 29 30 32 34 35 35 37 38 38 38 38 38 39 39 40 38
19 18 18 18 18 18 17 17 15 15 16 16 16 16 16 16 15 16 17 17 16 16 16 17 18 18 19 21 22 23 23 23 24 25 26 27 28 28 29 30 31 32 32 32 32 32 32 33 33 33 33 33 32 31 31 32 33 34 35 36 37 38 38 38 38 39 40 40 39
17 16 16 16 16 16 16 15 14 14 14 14 14 14 14 14 14 15 16 17 17 16 16 18 19 20 21 22 23 24 24 25 26 26 27 27 28 29 29 30 30 31 31 31 31 32 33 33 33 34 34 35 34 33 31 32 32 34 35 36 37 38 38 39 39 39 40 40 40
15 15 15 14 15 14 14 14 13 13 13 12 12 12 12 13 14 15 15 16 16 17 17 18 19 21 22 23 23 24 24 25 26 26 27 27 28 28 29 29 30 30 30 31 31 32 32 33 33 34 35 36 36 35 34 32 32 33 34 35 37 37 38 39 39 40 40 41 41
14 14 13 13 13 13 13 13 12 12 11 11 11 11 12 12 13 13 14 14 15 16 17 18 19 20 21 21 21 22 23 24 25 26 27 28 28 29 29 30 30 30 31 31 31 31 31 32 33 33 34 36 36 36 36 34 33 33 34 35 37 38 38 39 40 40 40 41 41
13 13 13 12 12 12 12 12 12 11 11 11 11 11 11 11 12 12 13 14 15 16 16 17 18 18 18 19 19 20 21 22 23 24 26 27 28 29 30 30 30 29 30 31 31 31 31 32 32 32 33 34 35 36 36 34 34 33 34 35 37 38 39 40 40 40 40 40 40
13 13 12 12 11 11 11 11 11 11 11 11 10 10 10 10 11 12 14 14 15 16 16 16 16 16 16 17 17 18 19 20 21 22 24 25 27 28 29 30 30 30 30 31 31 32 32 32 32 32 32 32 33 34 34 34 34 33 34 35 36 38 39 40 40 40 40 39 39
13 13 12 12 11 11 11 11 11 11 10 10 10 10 10 10 11 13 14 14 14 14 15 15 15 16 16 15 16 17 18 19 20 21 22 23 25 26 27 28 29 30 31 31 31 31 31 32 31 31 31 31 30 31 32 33 33 33 34 35 35 36 37 38 38 38 38 37 37
12 12 12 12 11 11 11 11 11 10 10 10 10 10 10 11 11 12 13 13 13 13 13 13 13 13 14 14 15 15 17 18 20 20 21 22 24 25 25 26 27 28 29 29 29 29 29 30 30 30 29 29 28 29 30 32 33 33 33 33 34 34 33 32 32 33 33 33 33
11 11 11 11 11 11 11 11 10 10 10 10 10 10 10 10 10 11 12 12 11 11 11 10 10 11 11 12 13 13 14 16 17 19 21 22 23 23 24 25 26 26 26 27 28 28 28 28 28 27 27 27 27 28 29 30 31 31 31 30 29 28 25 23 23 24 25 25 26
11 11 11 11 11 11 11 10 10 10 10 10 10 10 10 10 10 10 10 10 10 9 9 9 9 8 8 8 8 9 10 11 12 14 16 18 19 21 23 24 24 24 24 26 27 28 28 28 28 27 26 25 24 24 25 26 26 27 26 25 25 24 23 22 22 23 24 25 25
11 11 11 11 11 11 11 11 10 10 10 10 10 9 9 9 9 9 9 9 9 8 8 7 7 7 7 6 5 5 6 7 8 10 11 12 14 15 17 18 20 21 23 25 27 28 28 29 28 27 24 20 18 18 20 20 21 23 24 26 27 28 28 28 28 28 29 29 29
12 12 12 12 11 12 12 12 11 10 10 9 9 9 9 9 9 9 9 9 9 9 9 10 10 10 9 8 7 6 5 5 6 6 7 8 10 10 12 14 17 20 23 24 25 25 25 25 25 23 20 18 18 20 21 22 23 25 27 28 30 31 32 32 32 32 32 33 33
13 13 12 12 12 12 12 12 11 11 10 10 9 9 10 9 9 10 10 11 12 12 12 12 13 13 12 11 10 9 8 8 7 7 7 7 8 7 7 8 10 13 17 18 18 18 18 19 20 21 22 23 24 25 25 26 26 27 28 28 30 32 33 33 34 34 35 35 35
14 13 13 13 13 13 12 12 12 11 11 11 11 11 11 11 11 12 13 14 14 14 14 14 15 15 14 13 13 12 12 12 11 11 12 12 12 12 12 12 13 13 15 17 18 19 21 23 25 27 28 28 29 28 28 29 29 28 28 28 29 31 33 34 35 36 36 36 36
13 13 13 13 13 13 12 13 12 12 12 13 13 14 15 16 16 16 17 17 17 17 18 18 18 17 17 16 16 16 16 15 15 16 17 18 20 21 21 22 23 24 24 25 26 27 29 30 32 32 33 33 32 31 30 30 30 29 28 28 28 29 31 32 33 35 36 37 38
13 13 13 14 14 14 14 14 14 15 16 17 18 19 19 19 19 19 20 20 21 21 21 21 20 20 19 18 18 19 19 19 19 20 21 23 24 26 27 28 28 30 31 32 33 33 35 36 36 37 37 37 36 34 33 33 32 31 29 28 28 28 29 30 32 33 36 37 38
14 14 14 15 15 16 16 17 18 19 19 20 21 21 21 21 21 21 22 22 23 23 23 23 22 22 21 21 21 21 22 22 23 23 25 27 28 29 30 30 30 32 34 36 37 38 39 40 41 41 41 40 39 37 36 36 35 34 32 31 29 29 30 31 32 33 34 36 37
16 16 17 17 18 18 19 20 21 21 22 22 22 22 22 22 22 22 22 23 23 24 24 23 23 22 21 21 22 22 22 23 24 25 26 28 30 31 31 30 30 32 36 39 41 42 43 44 44 45 45 43 41 40 38 38 37 36 35 33 32 31 31 31 32 32 33 34 35
18 18 19 19 20 20 21 22 23 23 23 23 23 23 23 23 23 23 24 25 26 26 25 25 24 24 24 24 24 25 25 25 26 27 28 30 32 33 33 32 32 34 37 41 43 45 46 47 47 47 46 45 42 40 40 40 39 38 37 36 35 34 33 32 31 31 32 34 35
20 21 21 21 21 22 22 23 24 24 24 24 23 23 24 24 24 24 26 28 29 28 27 26 26 26 26 26 26 26 26 27 27 28 29 31 32 33 33 33 33 35 37 41 44 46 47 48 48 48 47 45 42 41 40 41 40 39 38 37 36 35 34 32 31 31 31 31 33
21 22 22 22 22 22 23 24 24 24 24 24 24 24 24 24 24 25 27 29 30 29 28 27 27 27 27 27 27 27 27 27 27 28 28 29 31 32 32 32 33 34 37 39 42 45 46 47 47 47 46 44 41 40 39 39 38 38 37 37 35 34 34 33 32 31 30 30 31
23 23 24 23 23 23 23 24 24 24 23 23 23 24 25 25 24 25 27 29 30 29 29 28 28 28 28 28 28 28 28 28 28 28 28 29 29 30 31 30 30 31 34 37 40 42 43 44 44 45 44 43 40 39 37 37 36 36 36 36 35 34 34 34 34 33 32 32 32
24 24 25 24 24 24 24 24 24 23 23 23 24 24 25 25 25 25 27 28 29 29 29 28 28 28 28 29 30 29 29 28 29 29 29 28 28 29 30 29 28 28 30 34 37 39 40 40 40 40 40 40 39 38 37 36 35 35 35 35 35 36 36 36 36 35 35 34 34
24 25 25 25 25 25 24 24 23 23 23 24 25 25 26 25 26 26 28 29 29 29 30 30 29 29 30 31 31 30 29 29 29 28 28 28 28 29 29 28 27 27 28 31 34 36 37 37 37 37 37 37 36 36 36 36 35 34 33 33 34 35 35 35 36 36 35 35 35
25 26 26 26 26 25 25 24 23 23 23 24 25 25 26 26 27 27 27 28 28 29 29 29 30 30 30 31 31 31 30 29 28 28 28 28 28 28 27 27 27 27 28 29 32 33 34 35 35 35 35 35 35 35 35 35 34 32 32 32 32 33 33 33 34 35 35 34 34
Wind_Direction
172 172 173 175 175 177 179 180 179 179 178 178 180 182 184 186 187 187 188 188 189 192 195 197 199 200 199 198 198 199 200 201 202 203 204 205 206 207 208 209 209 208 207 206 206 205 204 202 202 203 204 207 208 209 210 211 211 211 212 213 214 215 214 214 215 215 216 216 215
171 171 172 173 174 175 177 178 178 178 178 178 179 181 183 185 187 188 189 189 190 191 193 196 198 200 200 200 200 201 202 203 204 205 205 206 207 207 207 208 209 209 208 207 206 206 206 204 203 203 205 208 209 210 211 212 212 212 212 212 213 214 215 216 216 217 217 219 218
169 169 170 172 173 174 175 176 177 177 178 178 179 180 182 184 186 188 190 191 192 192 193 195 198 200 201 201 202 202 204 205 206 207 207 207 208 208 208 209 209 209 209 208 208 207 207 206 204 204 206 207 209 210 212 213 213 212 212 211 212 212 214 216 217 218 218 220 218
168 168 170 171 172 173 174 175 175 176 177 177 177 178 180 182 184 186 188 190 192 194 195 196 197 198 200 201 202 204 205 206 207 208 209 210 209 209 209 208 209 211 211 210 210 209 208 208 205 205 206 207 208 210 211 213 213 213 213 212 211 212 214 216 217 217 218 218 218
168 168 169 171 172 173 174 173 173 174 175 175 176 178 180 181 182 184 186 189 193 195 196 196 196 197 199 200 202 204 206 207 208 208 210 211 211 211 210 210 210 211 212 212 212 211 210 209 208 209 210 209 209 210 211 211 211 212 214 214 213 214 215 216 216 216 217 218 218
167 167 169 170 172 173 173 172 172 173 174 174 176 179 181 181 182 184 186 189 192 194 195 195 195 196 197 199 202 204 205 207 208 209 210 211 212 212 211 211 212 212 212 212 212 212 210 209 209 211 212 211 210 210 210 209 210 211 212 213 213 213 214 214 215 215 215 216 215
167 167 167 169 172 173 173 172 172 173 174 175 178 181 183 184 185 185 187 188 190 191 193 194 194 194 196 198 201 203 205 206 208 209 210 212 213 213 211 211 211 212 213 213 213 212 211 209 210 211 212 212 211 211 211 209 209 209 210 212 212 212 213 214 215 214 214 214 214
165 165 166 169 172 174 175 174 175 176 178 180 182 184 186 186 186 187 187 188 189 191 193 194 195 196 197 198 200 203 205 206 207 208 210 212 213 213 212 211 212 213 214 214 213 212 211 210 211 212 213 213 212 212 212 211 210 209 210 211 212 212 213 214 214 214 214 214 213
164 165 166 169 172 176 177 178 178 180 182 184 185 187 188 187 187 187 188 189 191 193 195 197 198 200 201 202 204 205 206 207 208 209 210 212 213 214 213 213 213 214 215 215 214 213 212 212 212 213 214 214 213 212 211 210 210 210 211 212 213 213 212 211 211 212 213 213 213
166 167 169 171 174 176 178 179 181 182 184 185 186 187 187 186 186 187 189 191 191 194 197 199 201 202 204 205 206 207 207 208 209 210 211 212 213 214 213 214 214 215 215 215 214 213 212 212 213 214 215 215 214 213 212 210 209 209 210 211 211 211 211 210 210 210 211 212 212
168 170 170 171 173 174 176 178 181 184 186 186 186 186 185 184 185 187 188 189 190 192 195 197 198 200 202 204 205 205 206 207 207 208 209 210 211 212 212 212 213 213 213 213 212 212 213 214 213 214 216 216 215 214 213 212 211 211 211 210 209 209 210 211 211 211 211 212 211
166 167 167 167 169 171 174 177 180 184 186 186 185 185 184 184 185 186 185 186 186 187 190 192 192 194 196 198 199 200 201 203 204 205 206 207 208 208 209 209 210 210 211 211 213 216 217 216 213 213 214 216 215 214 213 213 212 212 212 211 209 210 211 212 212 212 211 211 210
159 160 162 163 166 168 172 176 180 182 183 184 183 183 183 183 183 182 181 182 183 185 187 188 189 190 192 195 196 197 199 201 202 203 204 205 206 207 208 209 209 210 211 212 216 220 221 218 215 214 214 214 213 213 213 213 212 212 212 212 210 210 211 212 211 211 211 209 209
154 156 159 162 163 165 169 175 177 178 178 179 181 181 181 181 181 181 181 182 184 187 189 191 193 195 197 199 201 203 204 206 207 208 208 209 210 211 213 214 215 215 216 217 218 219 219 219 219 219 218 216 213 212 212 212 212 211 211 210 210 210 211 211 211 210 209 209 209
153 156 158 159 160 162 166 170 173 173 173 175 178 180 179 179 182 183 185 187 190 193 196 199 203 206 208 210 212 213 214 215 215 216 217 218 218 219 219 220 221 221 221 222 222 221 221 222 223 224 224 223 219 215 213 212 211 211 211 211 211 211 211 211 210 209 208 208 208
153 155 156 158 160 162 165 167 169 170 171 173 176 177 178 179 183 187 190 193 197 200 205 209 212 216 219 222 223 223 224 224 224 224 223 224 224 224 224 225 225 226 226 225 225 225 225 225 225 226 226 226 224 220 216 213 213 212 212 212 211 211 211 210 209 208 207 207 208
151 153 154 158 161 163 165 167 168 169 171 173 175 177 178 181 185 191 197 200 204 209 214 219 222 224 227 229 229 229 229 229 228 228 227 227 227 227 227 227 228 228 228 227 227 227 227 227 227 227 226 226 225 222 218 214 214 215 214 213 212 211 211 210 208 208 207 207 208
150 153 155 159 161 163 165 166 166 168 169 171 174 178 182 186 192 199 205 209 213 217 222 226 228 229 230 231 231 230 229 229 230 230 230 230 230 230 230 230 230 230 230 229 229 229 229 229 228 228 227 227 227 225 222 218 215 216 216 214 212 211 210 209 209 208 207 207 207
152 154 156 158 160 161 162 163 163 165 167 171 176 181 187 195 201 205 210 214 217 220 224 227 229 229 229 228 228 227 227 228 229 231 232 233 233 233 233 233 233 233 232 232 231 231 230 230 229 228 227 228 229 228 226 223 219 217 216 214 212 211 210 210 209 208 208 207 206
152 153 155 157 158 159 160 161 162 165 169 173 179 184 189 195 200 204 208 213 216 219 221 223 225 225 225 225 225 226 226 227 229 232 233 234 235 235 235 235 235 235 234 234 233 233 232 231 229 227 227 227 227 227 226 225 223 219 216 213 212 211 210 210 210 209 208 207 206
151 151 153 154 155 157 159 161 163 166 169 172 175 180 185 189 195 200 205 210 215 216 217 220 221 222 224 225 226 228 229 230 231 232 234 235 235 236 236 236 235 234 234 234 234 234 233 232 230 228 227 226 225 224 224 225 224 220 215 212 211 211 211 211 210 209 207 206 205
147 147 149 150 152 153 155 157 161 163 164 165 168 173 177 184 191 198 204 208 211 214 215 218 220 223 225 228 230 232 234 235 235 235 236 236 237 237 237 236 235 234 234 233 233 233 233 232 231 230 228 225 224 224 223 223 222 218 214 212 212 212 211 211 209 208 206 205 203
141 142 144 146 148 149 149 151 154 155 156 158 162 166 170 176 185 193 198 201 205 208 212 215 219 222 225 229 233 236 238 239 240 240 240 240 239 239 238 237 236 236 236 235 234 233 233 233 234 233 230 226 225 224 223 221 218 216 213 212 212 211 210 209 208 207 205 204 202
137 140 142 143 144 145 145 146 147 149 152 155 158 163 167 170 178 185 191 195 199 203 206 211 215 220 224 230 234 238 241 243 244 245 244 243 242 241 240 239 238 237 236 235 234 233 233 233 233 233 230 226 224 224 222 218 216 214 212 211 210 210 210 208 207 207 205 203 200
135 136 138 138 139 139 139 140 143 146 150 154 159 163 166 169 172 179 186 191 194 198 203 208 214 220 225 230 234 239 242 245 247 248 248 247 246 245 243 242 241 239 237 236 235 234 233 231 231 231 230 227 226 225 223 219 215 211 209 206 204 201 197 192 189 188 187 186 183
134 135 135 136 136 135 135 137 141 146 150 155 159 163 165 167 170 176 181 186 190 193 198 203 206 209 213 218 223 229 235 240 244 246 246 246 247 245 244 242 241 239 237 236 236 236 235 234 233 232 231 229 224 220 216 211 206 201 195 188 181 173 164 155 151 151 154 155 155
137 136 135 135 134 135 138 141 144 147 150 154 157 159 162 165 168 171 175 177 179 179 176 173 171 170 168 169 177 188 203 218 227 231 234 235 235 235 234 234 234 234 234 235 236 237 238 237 236 232 225 214 201 192 186 180 175 171 166 160 156 152 147 141 138 137 137 137 138
142 139 137 136 136 139 142 145 146 147 147 149 151 153 156 159 160 162 162 160 155 147 138 132 131 133 134 133 136 142 154 172 188 197 204 208 210 213 217 222 226 229 232 234 235 235 233 230 225 214 196 174 159 153 150 145 142 141 141 141 142 142 140 137 136 134 132 130 129
143 140 138 138 140 142 144 145 144 144 142 142 142 145 148 150 150 147 140 134 128 123 120 119 121 122 120 116 117 119 122 126 131 137 143 151 156 164 175 189 202 213 219 219 216 210 203 196 186 171 156 145 138 133 130 128 127 127 128 130 132 133 134 134 133 132 129 127 125
140 139 138 138 139 139 140 140 139 136 136 136 135 133 130 128 125 121 117 114 113 113 115 117 117 115 110 109 109 108 107 107 110 113 115 115 113 110 111 119 128 145 163 171 166 160 155 151 145 138 133 130 127 123 120 119 120 120 120 122 124 126 128 128 128 128 127 125 123
137 135 135 134 133 132 132 132 131 129 126 122 118 115 111 107 105 105 106 107 108 110 113 114 112 108 106 105 105 102 101 101 102 103 103 103 102 101 101 104 109 119 131 141 143 141 137 133 129 125 123 121 118 115 113 113 112 112 113 114 116 119 121 122 123 124 124 123 122
131 130 129 129 126 125 124 121 118 115 112 108 106 105 103 101 101 101 103 105 107 108 108 107 105 102 101 101 100 100 99 98 97 98 100 100 100 100 100 100 103 110 120 129 132 131 128 125 122 120 117 114 111 109 107 106 105 104 104 105 107 110 112 113 115 117 118 120 120
125 125 124 123 120 116 113 110 107 106 105 104 104 102 101 100 100 101 102 103 104 103 102 101 100 98 97 97 96 96 96 96 96 97 99 100 100 99 98 97 98 105 113 121 124 124 123 121 118 116 113 110 107 104 103 101 100 98 97 97 98 100 102 104 106 108 111 114 117
119 117 115 113 111 108 106 106 106 105 104 103 102 101 101 100 100 99 100 101 101 100 99 98 97 97 97 96 96 96 95 95 95 96 98 99 100 99 96 94 96 102 109 115 118 119 119 117 115 113 110 107 104 101 100 98 96 94 92 91 91 92 94 97 99 102 106 110 113
115 113 110 108 107 106 106 106 106 105 104 102 101 100 100 99 99 99 100 101 100 99 97 96 96 96 95 95 95 95 95 95 95 95 96 98 98 97 95 94 96 100 106 110 114 115 116 115 114 112 109 105 102 100 98 95 93 92 90 89 87 87 88 90 93 97 101 106 110
113 112 109 107 106 106 106 106 106 105 104 102 101 100 99 99 99 100 101 102 100 98 96 95 95 95 93 92 92 92 93 94 94 94 95 96 96 96 95 95 96 99 103 107 110 112 113 113 112 111 108 105 102 99 97 94 92 91 89 88 86 85 85 86 88 91 96 101 106
113 112 109 107 106 106 106 106 106 105 104 103 103 102 101 100 100 100 101 101 100 98 97 96 95 94 93 92 90 90 91 93 93 93 93 95 96 97 96 96 97 99 102 106 109 111 112 112 111 110 108 104 101 99 96 94 92 91 89 88 86 86 86 87 87 89 91 96 101
112 111 109 107 106 106 106 105 105 105 104 104 103 103 102 101 100 100 100 100 100 100 98 96 95 94 94 93 91 90 90 90 91 92 92 93 95 97 97 97 97 99 103 108 111 113 113 113 112 111 109 105 102 100 97 95 93 91 90 88 86 86 87 88 88 89 90 94 99
110 109 108 107 106 105 105 104 104 104 104 104 103 102 102 100 100 99 99 100 100 100 98 96 95 95 94 93 92 90 88 87 89 90 91 90 92 94 96 95 94 97 102 107 111 114 115 114 114 113 111 108 105 102 100 97 94 92 90 89 87 86 86 88 88 89 91 94 99
109 108 107 106 106 105 103 102 102 103 104 104 103 102 101 101 101 101 100 99 99 99 98 97 96 95 95 94 93 91 89 86 85 86 87 88 89 91 92 92 91 93 97 103 108 112 114 115 116 116 114 112 109 106 103 100 97 93 91 90 90 88 87 87 89 90 91 93 96
108 107 106 105 105 104 103 102 102 102 102 102 102 103 103 104 104 103 101 100 100 99 98 97 97 96 95 94 94 92 90 87 84 83 85 87 87 87 88 89 89 90 94 99 105 110 113 115 117 118 117 115 111 109 106 104 99 96 93 93 93 92 90 89 89 89 90 91 93
Height
664 667 671 673 676 679 682 686 688 690 692 695 697 700 702 704 706 708 710 712 714 716 718 720 722 723 725 727 728 730 731 733 734 736 736 738 739 741 742 744 746 747 748 750 751 753 754 755 756 757 759 760 761 762 763 764 764 766 766 768 769 770 771 773 774 775 776 777 778
663 667 670 673 676 679 681 685 687 689 691 694 696 698 700 702 704 706 709 711 712 715 717 719 721 722 724 726 727 728 730 731 733 734 735 736 737 739 741 742 744 745 746 748 749 751 752 753 754 756 756 758 759 760 761 761 762 763 764 765 766 768 770 771 772 773 774 775 777
663 666 670 673 676 678 681 683 686 688 691 693 695 697 699 701 703 705 707 709 711 713 715 717 719 721 722 724 726 727 729 730 731 733 734 735 736 737 739 740 742 743 744 746 747 748 749 751 752 753 754 756 756 757 758 759 761 761 762 763 764 766 768 769 770 772 773 774 776
662 666 669 672 675 677 680 682 685 687 690 692 694 696 698 700 702 704 706 708 710 712 714 716 717 719 721 722 724 726 727 728 730 731 732 734 735 736 737 738 740 741 742 744 745 746 747 749 750 751 752 753 754 755 756 757 758 759 760 761 762 763 765 767 768 770 771 772 774
662 666 669 672 674 677 679 681 684 686 689 691 694 696 698 700 701 703 705 707 709 711 712 714 716 717 719 721 722 724 725 727 728 729 731 732 733 734 735 736 737 739 740 741 742 744 745 746 748 749 750 751 751 752 754 755 756 757 758 759 760 761 763 765 766 768 769 770 772
662 666 669 672 674 677 679 681 684 686 688 691 693 695 697 698 700 702 704 706 707 709 711 713 714 716 717 719 721 722 724 725 726 727 729 730 731 732 734 734 736 737 738 739 740 741 743 745 746 747 748 748 749 750 751 753 754 755 756 758 758 760 761 763 764 765 767 768 770
662 665 668 671 674 676 678 681 683 686 688 691 692 694 696 697 699 701 702 704 706 708 710 711 713 714 716 718 719 721 722 723 724 726 727 728 729 731 731 732 734 735 736 737 738 740 741 742 743 744 745 746 747 748 749 751 752 753 754 755 756 757 759 760 762 764 765 766 767
662 665 668 671 673 676 678 681 683 686 688 690 692 693 695 696 698 700 702 704 706 707 708 710 711 713 715 716 717 719 720 721 722 724 725 726 727 729 730 731 732 733 734 735 736 737 738 740 741 741 742 743 744 745 747 748 749 750 751 752 754 755 756 758 761 762 763 764 765
662 665 668 670 673 676 678 681 683 685 687 689 691 692 694 696 697 699 701 703 704 706 707 708 710 712 713 714 716 717 718 719 721 722 723 724 726 726 728 729 730 731 732 733 734 735 736 738 738 739 740 741 741 742 744 746 747 748 749 750 752 753 755 756 758 759 760 762 764
662 665 667 670 673 675 678 680 682 685 686 688 690 692 693 695 696 698 700 701 703 704 706 707 709 710 711 713 714 715 716 717 719 720 721 722 723 725 726 727 728 729 730 731 732 733 735 736 736 736 737 738 739 740 742 743 744 746 747 749 750 752 753 755 756 757 759 761 762
662 664 667 669 672 675 677 680 682 684 686 687 689 691 692 694 696 697 699 700 701 703 704 706 707 709 710 711 712 714 715 716 717 718 719 721 721 722 724 725 726 727 728 729 730 731 733 734 734 735 736 736 737 738 740 741 742 744 745 747 748 750 751 753 755 756 757 759 760
662 664 666 668 671 674 676 679 681 683 685 686 688 690 691 693 695 696 698 699 701 702 703 705 706 707 709 710 711 712 714 715 716 717 718 719 720 721 722 723 724 725 726 727 728 730 731 732 732 733 734 735 736 736 738 739 741 742 743 745 746 748 749 751 752 754 755 757 758
661 663 665 668 671 673 676 678 681 682 684 686 687 689 691 692 694 695 697 698 699 701 703 704 706 706 708 709 710 711 713 714 715 716 717 718 719 720 721 722 722 724 725 725 726 728 730 731 731 731 732 733 733 734 736 737 738 740 741 743 744 745 746 747 749 751 752 754 755
660 662 665 667 670 672 675 678 680 681 683 685 686 688 690 691 693 694 696 697 699 700 702 703 705 706 707 708 709 711 712 713 714 715 716 716 717 718 719 720 721 722 723 724 725 726 727 728 729 730 730 731 731 732 733 735 736 737 738 740 741 742 743 744 746 748 749 751 752
661 662 665 667 669 672 674 677 679 681 682 684 686 688 689 691 692 693 695 696 698 699 701 702 703 705 706 707 708 709 711 711 712 713 714 715 716 717 718 718 719 720 721 722 723 724 725 726 726 727 728 729 730 730 731 732 733 734 735 736 737 739 740 741 743 745 746 748 749
661 663 665 667 669 671 674 676 678 680 681 683 685 687 688 690 691 692 694 695 697 698 699 701 702 703 704 706 707 708 709 710 711 712 712 713 714 715 716 716 717 718 719 720 721 721 722 723 724 725 726 727 728 728 729 730 731 732 733 734 735 736 737 739 740 742 743 745 746
661 663 665 667 669 671 674 676 677 679 681 682 684 686 687 688 690 691 692 694 695 696 698 699 700 702 703 704 706 707 708 708 709 710 711 711 712 713 714 714 715 716 716 717 718 719 720 721 721 722 724 725 726 726 727 727 728 729 730 731 732 733 735 736 738 739 741 742 744
662 664 666 668 670 671 673 675 676 678 680 681 683 685 686 687 689 690 691 692 694 695 696 698 699 701 702 703 704 705 706 706 707 708 708 709 710 711 711 712 713 713 714 715 716 716 717 718 719 720 721 722 723 724 725 726 726 727 728 729 730 731 732 734 735 736 738 740 741
664 666 667 669 670 671 673 675 676 678 679 681 682 684 685 686 687 689 690 691 692 694 695 697 698 699 701 701 702 703 704 705 705 706 706 707 708 709 709 710 711 711 712 713 713 714 715 716 716 717 718 719 721 722 723 724 724 725 726 727 728 729 730 731 733 734 736 737 739
665 666 668 669 670 671 673 674 676 677 679 680 682 683 685 686 687 688 689 690 691 693 694 696 697 698 699 700 701 701 702 702 703 704 705 705 706 707 707 708 709 710 710 711 711 712 713 713 714 715 716 716 718 719 720 721 722 722 723 725 726 726 728 729 730 732 733 735 736
665 666 667 669 670 671 672 674 675 677 678 680 681 682 684 685 686 686 688 689 691 692 693 694 695 696 697 698 699 700 700 701 701 702 703 703 704 704 705 706 707 707 708 709 709 710 711 711 711 712 713 714 715 716 717 718 719 720 721 722 723 724 725 726 728 729 731 732 734
665 666 667 669 670 671 672 674 675 676 678 679 680 681 682 684 685 686 687 689 690 691 692 693 694 695 696 697 697 698 699 699 700 700 701 701 702 702 703 704 705 705 706 707 707 708 708 709 709 710 711 711 712 713 714 715 716 717 718 719 721 722 723 724 726 727 728 730 732
665 666 667 669 670 671 672 674 675 676 677 678 679 681 682 683 685 686 687 688 690 691 691 692 693 694 695 696 696 697 698 698 698 699 699 700 700 701 701 702 703 703 704 704 705 705 706 706 707 708 709 709 710 711 712 713 714 715 716 717 718 720 721 723 724 726 727 729 731
665 666 667 668 670 671 672 673 675 676 677 678 679 681 682 684 685 686 687 688 689 690 691 692 693 693 694 695 696 696 697 697 697 698 698 698 698 699 699 700 701 701 701 702 702 703 703 704 705 706 706 707 707 708 709 710 711 712 714 715 717 719 721 722 724 726 728 730 732
665 666 667 668 670 671 672 673 674 676 677 678 680 681 682 684 685 686 687 688 689 690 691 691 692 693 694 694 695 696 696 696 697 697 697 697 697 697 698 698 698 699 699 700 700 701 701 702 703 704 704 705 706 706 707 708 709 710 712 713 716 718 720 722 724 726 728 730 731
666 667 668 669 670 671 672 673 675 676 677 679 680 681 682 683 684 685 686 687 688 689 690 691 692 692 693 694 694 695 695 696 696 696 696 696 696 696 696 696 696 697 697 697 698 699 700 700 701 701 702 703 704 705 706 706 707 709 710 712 714 716 718 720 722 724 726 727 729
667 668 669 669 670 671 672 674 676 677 678 679 680 681 682 683 684 685 686 686 688 689 690 691 691 692 693 693 694 694 695 695 695 695 695 695 695 695 695 695 695 694 695 695 696 697 698 699 699 700 701 702 703 703 704 705 706 708 709 711 712 714 716 718 721 723 725 727 729
668 669 670 670 671 672 674 675 676 677 678 679 680 681 681 682 684 685 686 686 687 688 690 691 691 692 693 694 694 694 695 695 695 695 694 694 694 694 693 693 693 693 693 694 695 696 697 697 698 699 700 700 701 702 703 705 706 708 709 711 712 713 715 717 720 722 724 726 728
669 670 671 671 672 673 675 676 676 677 678 679 680 681 681 682 683 685 686 686 688 689 690 691 692 692 693 694 695 695 695 696 696 695 695 694 694 693 693 693 693 693 693 693 695 695 696 696 697 698 699 699 700 702 704 706 708 709 711 712 713 714 716 718 720 722 724 726 728
670 670 671 672 673 674 675 676 677 677 678 679 680 681 682 683 684 685 686 687 688 690 691 691 692 693 694 695 696 696 696 696 696 696 696 695 694 694 694 694 694 694 693 693 694 695 695 696 697 698 698 699 701 703 705 707 709 711 713 714 715 716 717 719 721 722 724 726 727
670 671 671 672 673 674 675 676 677 678 678 679 680 681 682 683 685 686 687 688 689 691 691 692 693 694 695 696 697 697 697 697 697 697 697 696 696 695 696 696 696 696 695 693 694 695 696 696 697 698 699 700 702 704 707 709 711 713 715 717 718 719 720 721 722 723 724 725 726
670 671 671 672 673 675 676 676 677 678 679 680 681 682 683 685 686 687 688 690 691 691 692 693 694 696 696 697 698 698 699 699 699 699 698 697 697 697 697 697 698 698 696 695 695 695 696 697 698 699 700 702 704 707 709 711 713 716 718 719 721 721 722 723 724 725 725 725 726
671 671 672 673 674 675 676 677 678 679 680 681 682 684 685 686 688 689 690 691 692 693 694 695 696 697 698 699 699 700 700 700 700 700 700 699 699 699 699 700 701 701 700 697 696 697 698 699 700 701 702 704 706 709 711 713 715 717 720 722 723 724 725 725 726 726 727 728 729
671 672 673 674 675 676 677 678 679 680 682 683 685 686 687 689 690 691 692 693 693 694 695 696 697 698 700 700 701 701 701 702 702 702 702 701 701 700 701 703 705 705 703 700 699 699 700 700 701 702 704 706 709 711 714 715 717 719 721 723 725 726 726 727 728 729 730 731 732
672 673 675 676 677 678 679 680 681 682 684 686 687 688 690 691 691 692 693 694 694 695 696 698 699 700 701 701 702 702 703 703 704 704 704 703 703 703 704 706 708 708 706 704 702 701 701 702 703 704 705 708 711 714 715 716 718 721 722 724 726 727 728 729 731 732 733 734 736
674 675 676 677 679 680 681 682 683 685 686 688 689 690 691 692 693 694 695 695 695 696 698 700 701 701 702 703 704 704 705 705 706 706 706 706 706 706 707 709 711 711 710 708 706 704 704 704 705 705 707 710 713 716 717 718 721 722 724 726 728 730 731 733 735 736 737 738 739
676 677 678 679 681 682 683 685 686 687 689 690 691 692 693 694 695 696 696 696 696 698 700 701 702 703 704 705 706 706 707 707 708 708 709 709 709 710 711 712 713 714 714 712 710 709 708 707 707 708 709 712 715 718 719 721 723 725 726 729 731 733 735 736 738 740 741 742 743
677 678 680 681 683 684 686 687 688 689 691 692 693 694 695 696 697 698 698 697 698 700 701 703 704 705 706 706 707 708 709 710 710 711 711 712 712 713 713 714 716 717 717 716 715 713 712 711 711 711 712 715 717 719 721 723 725 727 729 731 734 736 737 739 740 742 744 745 746
679 680 681 683 685 686 688 689 690 691 693 694 695 695 696 697 698 699 700 700 700 701 703 704 706 707 708 708 709 710 711 712 713 713 714 715 716 716 716 716 718 719 719 719 717 716 715 715 715 715 715 716 718 721 722 724 726 729 731 733 735 737 739 741 742 744 746 748 749
681 682 683 685 686 688 689 691 692 694 695 696 696 696 697 698 699 700 701 701 702 703 704 705 707 708 709 709 710 711 713 714 715 716 716 717 718 718 718 719 720 721 721 720 719 718 717 717 717 717 717 718 720 722 724 726 728 731 733 735 737 739 742 744 745 747 749 751 752
683 684 685 686 688 689 691 693 695 696 696 697 698 698 699 700 701 702 702 703 704 705 706 707 708 710 710 711 712 713 715 716 717 718 719 720 720 721 721 722 722 722 722 721 720 720 719 719 719 719 719 721 722 724 726 728 730 733 736 738 740 742 745 747 749 751 753 755 757